Voltar ao catálogo

GONETS M 09

M19

AtivoComunicaçõesPO
NORAD 40062·PAYLOAD·🇷🇺 Russia

Lançado Jul 3, 2014 de Plesetsk Cosmodrome

Loading…

Próximas Passagens (próximas 24 horas)

TLE

AtualizadoSource: Space-Track

Época: Sep 14, 2026, 14:18 UTC

1 40062U 14036B   26257.59616450 -.00000049  00000-0 -42210-3 0  9991
2 40062  82.5044 252.1129 0022396 323.5710  36.3845 12.42953125553569

Acompanhe GONETS M 09 em tempo real com AllMySat

Download on the App Store